Elizabeth City, NC

5:19 AM EDT on May 29, 2017 (GMT -0400)
Elizabeth City Cgas-Regional

Weather History for KECG - January, 2014

Change the Weather History Date:

Sunday, January 19, 2014

  Actual Average Record
Temperature  
Mean Temperature 39 °F 41 °F  
Max Temperature 51 °F 51 °F 75 °F (1936)
Min Temperature 26 °F 32 °F 5 °F (1994)
Degree Days  
Heating Degree Days 26 24  
Month to date heating degree days 436 456  
Since 1 July heating degree days 1555 1611  
Cooling Degree Days 0 0  
Month to date cooling degree days 0 0  
Year to date cooling degree days 0 0  
Moisture  
Dew Point 26 °F    
Average Humidity 55    
Maximum Humidity 70    
Minimum Humidity 39    
Precipitation  
Precipitation 0.00 in 0.10 in 2.17 in (1987)
Month to date precipitation 1.72 1.91  
Year to date precipitation 1.72 1.91  
Snow  
Snow 0.00 in - 0.50 in (1940)
Month to date snowfall T  
Since 1 July snowfall T  
Snow Depth 0.00 in    
Sea Level Pressure  
Sea Level Pressure 29.95 in    
Wind  
Wind Speed 11 mph (SW)    
Max Wind Speed 18 mph    
Max Gust Speed 23 mph    
Visibility 10 miles    
Events      
T = Trace of Precipitation, MM = Missing Value Source: NWS Daily Summary

Daily Weather History Graph

Daily Weather History Graph

Search for Another Location

Airport or City:

Trip Planner

Search our weather history database for the weather conditions in past years. The results will help you decide how hot, cold, wet, or windy it might be!

Date:

Astronomy

Jan. 19, 2014 Rise Set
Actual Time 7:13 AM EST 5:17 PM EST
Civil Twilight 6:45 AM EST 5:45 PM EST
Nautical Twilight 6:14 AM EST 6:16 PM EST
Astronomical Twilight 5:43 AM EST 6:47 PM EST
Moon 8:45 PM EST (1/19) 8:49 AM EST (1/19)
Length of Visible Light 10h 59m
Length of Day
10h 03m
Waning Gibbous, 89% of the Moon is Illuminated
Jan 19
Waning Gibbous
Jan 24
Last Quarter
Jan 30
New
Feb 6
First Quarter
Feb 14
Full

Hourly Weather History & Observations

Time (EST) Temp. Windchill Dew Point Humidity Pressure Visibility Wind Dir Wind Speed Gust Speed Precip Events Conditions
12:54 AM 27.0 °F 19.5 °F 18.0 °F 69% 30.04 in 10.0 mi SW 6.9 mph - N/A   Clear
1:54 AM 28.9 °F 20.4 °F 19.9 °F 69% 30.04 in 10.0 mi SW 9.2 mph - N/A   Clear
2:54 AM 30.9 °F 22.8 °F 21.0 °F 67% 30.03 in 10.0 mi SSW 9.2 mph - N/A   Overcast
3:54 AM 32.0 °F 23.6 °F 21.9 °F 66% 30.01 in 10.0 mi SSW 10.4 mph - N/A   Partly Cloudy
4:54 AM 33.1 °F 25.5 °F 21.0 °F 61% 29.99 in 10.0 mi SSW 9.2 mph - N/A   Partly Cloudy
5:54 AM 34.0 °F 25.5 °F 21.9 °F 61% 29.99 in 10.0 mi SSW 11.5 mph - N/A   Clear
6:54 AM 36.0 °F 28.5 °F 24.1 °F 62% 29.98 in 10.0 mi SSW 10.4 mph - N/A   Partly Cloudy
7:54 AM 37.0 °F 31.0 °F 25.0 °F 62% 29.97 in 10.0 mi South 8.1 mph - N/A   Overcast
8:54 AM 39.9 °F 33.9 °F 26.1 °F 58% 29.98 in 10.0 mi SSW 9.2 mph - N/A   Mostly Cloudy
9:54 AM 43.0 °F 36.4 °F 24.1 °F 47% 29.97 in 10.0 mi SSW 12.7 mph - N/A   Partly Cloudy
10:54 AM 45.0 °F 39.3 °F 23.0 °F 42% 29.97 in 10.0 mi SW 11.5 mph - N/A   Overcast
11:54 AM 45.0 °F 38.5 °F 25.0 °F 46% 29.94 in 10.0 mi SSW 13.8 mph 20.7 mph N/A   Scattered Clouds
12:54 PM 48.0 °F - 24.1 °F 39% 29.91 in 10.0 mi WSW 12.7 mph - N/A   Clear
1:54 PM 48.9 °F - 27.0 °F 43% 29.88 in 10.0 mi SSW 12.7 mph - N/A   Clear
2:54 PM 50.0 °F - 28.9 °F 44% 29.86 in 10.0 mi SSW 13.8 mph - N/A   Clear
3:54 PM 51.1 °F - 32.0 °F 48% 29.87 in 10.0 mi SW 15.0 mph - N/A   Clear
4:54 PM 48.9 °F - 27.0 °F 43% 29.88 in 10.0 mi WSW 11.5 mph - N/A   Clear
5:54 PM 43.0 °F 38.2 °F 28.9 °F 58% 29.90 in 10.0 mi SW 8.1 mph - N/A   Clear
6:54 PM 42.1 °F 36.6 °F 28.9 °F 60% 29.91 in 10.0 mi SW 9.2 mph - N/A   Clear
7:54 PM 42.1 °F 36.1 °F 28.9 °F 60% 29.91 in 10.0 mi SSW 10.4 mph - N/A   Clear
8:54 PM 42.1 °F 36.6 °F 30.0 °F 62% 29.92 in 10.0 mi SSW 9.2 mph - N/A   Clear
9:54 PM 41.0 °F 35.2 °F 30.9 °F 67% 29.92 in 10.0 mi SSW 9.2 mph - N/A   Clear
10:54 PM 39.0 °F 32.3 °F 30.9 °F 73% 29.92 in 10.0 mi SW 10.4 mph - N/A   Clear
11:54 PM 39.0 °F 32.3 °F 30.0 °F 70% 29.91 in 10.0 mi SW 10.4 mph - N/A   Clear